📊 Raw Sensor Data

Showing records 47226 to 47250 of 85,082 total

ID Distance (ft) Battery V Battery A Int Temp (°F) Int Humid (%) Ext Temp (°F) Solar V RSSI SNR Time Stamp
37869 -- 3.87 39 51 40 54 4.50 -82 8 04/15/2025 07:31 AM
37868 -- 3.85 10 50 40 52 4.50 -82 7 04/15/2025 07:15 AM
37867 -- 3.85 9 50 40 52 4.50 -81 8 04/15/2025 07:00 AM
37866 -- 3.78 0 49 40 50 4.50 -79 9 04/15/2025 06:45 AM
37865 -- 3.77 -8 48 41 50 2.10 -80 7 04/15/2025 06:30 AM
37864 -- 3.77 -5 48 41 50 0.50 -67 8 04/15/2025 06:15 AM
37863 -- 3.77 -5 48 41 50 0.00 -67 8 04/15/2025 06:00 AM
37862 -- 3.78 -5 48 41 50 0.00 -67 8 04/15/2025 05:45 AM
37861 -- 3.78 -5 49 41 50 0.00 -68 8 04/15/2025 05:30 AM
37860 -- 3.78 -5 49 41 50 0.00 -67 8 04/15/2025 05:16 AM
37859 -- 3.78 -5 49 41 50 0.00 -67 8 04/15/2025 05:00 AM
37858 -- 3.83 -5 49 41 50 0.10 -67 8 04/15/2025 04:45 AM
37857 -- 3.78 -5 49 41 50 0.00 -69 8 04/15/2025 04:31 AM
37856 -- 3.83 -5 49 41 50 0.10 -67 8 04/15/2025 04:16 AM
37855 -- 3.78 -5 49 41 50 0.00 -66 8 04/15/2025 04:00 AM
37854 -- 3.83 -5 49 41 50 0.00 -68 8 04/15/2025 03:46 AM
37853 -- 3.78 -5 49 41 50 0.00 -69 8 04/15/2025 03:30 AM
37852 -- 3.78 -5 49 41 51 0.00 -66 8 04/15/2025 03:15 AM
37851 -- 3.78 -5 49 41 51 0.00 -68 8 04/15/2025 03:00 AM
37850 -- 3.78 -5 50 41 51 0.00 -67 8 04/15/2025 02:45 AM
37849 -- 3.79 -5 50 41 51 0.10 -66 8 04/15/2025 02:30 AM
37848 -- 3.79 -5 50 41 52 0.10 -68 8 04/15/2025 02:15 AM
37847 -- 3.84 -5 50 41 52 0.00 -67 8 04/15/2025 02:00 AM
37846 -- 3.79 -5 50 42 52 0.00 -68 8 04/15/2025 01:45 AM
37845 15.6 3.84 -5 51 42 52 0.00 -67 8 04/15/2025 01:30 AM